{"data":{"norad_id":65216,"intl_designator":"2025-176U","name":"STARLINK-34302","alt_names":[],"object_type":"PAYLOAD","status":"ACTIVE","operator":null,"country":"US","launch_date":"2025-08-14","launch_site_code":"AFETR","launch_vehicle":null,"mission":null,"orbit_class":"UNKNOWN","rcs_meters":null,"size_class":null,"mass_kg":null,"dimensions":null,"purposes":["comms"],"wikipedia_slug":null,"has_3d_model":false,"image_url":null,"decayed_at":null,"tle_current":{"epoch":"2026-09-20T21:08:33.797472Z","epoch_age_seconds":87523,"freshness":"FRESH","line1":"1 65216U 25176U   26263.88094673  .00020243  00000+0  60874-3 0  9993","line2":"2 65216  53.1609 321.9353 0001090  83.0140 277.0987 15.34395158 63067","mean_motion":15.34395158,"eccentricity":0.000109,"inclination_deg":53.1609,"raan_deg":321.9353,"arg_perigee_deg":83.014,"mean_anomaly_deg":277.0987,"bstar":0.00060874,"rev_number":6306,"period_min":93.848054231151,"perigee_km":461.9719785345,"apogee_km":463.46328484421,"semimajor_km":6840.8546316894,"source":"CELESTRAK","updated_at":"2026-09-21T09:00:35.537008Z"}}}